TimeEDT,TemperatureF,Dew PointF,Humidity,Sea Level PressureIn,VisibilityMPH,Wind Direction,Wind SpeedMPH,Gust SpeedMPH,PrecipitationIn,Events,Conditions,WindDirDegrees,DateUTC
12:54 AM,55.9,55.0,97,30.30,5.0,Calm,Calm,-,N/A,,Partly Cloudy,0,2012-10-13 04:54:00
1:54 AM,54.0,53.1,97,30.31,5.0,Calm,Calm,-,N/A,,Clear,0,2012-10-13 05:54:00
2:54 AM,52.0,52.0,100,30.31,6.0,Calm,Calm,-,N/A,,Mostly Cloudy,0,2012-10-13 06:54:00
3:54 AM,55.0,51.1,86,30.33,10.0,NE,3.5,-,N/A,,Scattered Clouds,40,2012-10-13 07:54:00
4:54 AM,54.0,48.0,80,30.36,10.0,NE,5.8,-,N/A,,Clear,40,2012-10-13 08:54:00
5:54 AM,51.1,46.9,86,30.38,10.0,NE,5.8,-,N/A,,Clear,50,2012-10-13 09:54:00
6:54 AM,48.9,45.0,86,30.42,10.0,NNE,6.9,-,N/A,,Clear,30,2012-10-13 10:54:00
7:54 AM,48.9,44.1,83,30.44,10.0,NNE,8.1,-,N/A,,Clear,30,2012-10-13 11:54:00
8:54 AM,51.1,43.0,74,30.45,10.0,NE,6.9,-,N/A,,Clear,40,2012-10-13 12:54:00
9:54 AM,54.0,41.0,62,30.46,10.0,Variable,5.8,-,N/A,,Clear,0,2012-10-13 13:54:00
10:54 AM,57.0,39.9,53,30.47,10.0,NNE,8.1,-,N/A,,Clear,30,2012-10-13 14:54:00
11:54 AM,60.1,43.0,53,30.46,10.0,Variable,4.6,-,N/A,,Clear,0,2012-10-13 15:54:00
12:54 PM,63.0,45.0,52,30.44,10.0,Variable,5.8,-,N/A,,Clear,0,2012-10-13 16:54:00
1:54 PM,64.9,46.0,50,30.40,10.0,Variable,6.9,-,N/A,,Clear,0,2012-10-13 17:54:00
2:54 PM,66.0,46.0,48,30.37,10.0,Calm,Calm,-,N/A,,Clear,0,2012-10-13 18:54:00
3:54 PM,66.9,46.9,49,30.35,10.0,East,4.6,-,N/A,,Clear,100,2012-10-13 19:54:00
4:54 PM,66.9,46.9,49,30.34,10.0,Calm,Calm,-,N/A,,Clear,0,2012-10-13 20:54:00
5:54 PM,66.0,48.9,54,30.34,10.0,SE,3.5,-,N/A,,Clear,140,2012-10-13 21:54:00
6:54 PM,57.0,50.0,77,30.34,10.0,Calm,Calm,-,N/A,,Clear,0,2012-10-13 22:54:00
8:54 PM,52.0,51.1,97,30.36,10.0,Calm,Calm,-,N/A,,Clear,0,2012-10-14 00:54:00
10:54 PM,51.1,48.9,92,30.35,9.0,Calm,Calm,-,N/A,,Clear,0,2012-10-14 02:54:00